Location: Belloy
(55.7522°N, 118.2333°W)
Time: 19:15:44
(UTC+00:00)

Envisat - Pass Details

Date: 04 December 2021
Orbit: 764 x 766 km, 98.2° (Epoch: 19 January)

Event Time Altitude Azimuth Distance (km) Brightness Sun altitude
Rises 01:50:55 0° 230° (SW) 3,229 7.3 -19.3°
Reaches altitude 10° 01:55:31 10° 268° (W) 2,311 6.7 -20.0°
Maximum altitude 01:56:34 11° 280° (W) 2,272 6.5 -20.1°
Drops below altitude 10° 01:57:37 10° 292° (WNW) 2,314 6.3 -20.2°
Sets 02:02:15 0° 331° (NNW) 3,248 6.5 -20.9°
